Location: Newark
(15.4608°S, 41.1635°W)
Time: 16:15:05
(UTC+00:00)

Vanguard 3 - Pass Details

Date: 08 March 2021
Orbit: 508 x 3262 km, 33.3° (Epoch: 20 April)

Event Time Altitude Azimuth Distance (km) Brightness Sun altitude
Rises 08:14:34 0° 224° (SW) 3,174 9.8 -8.5°
Reaches altitude 10° 08:17:14 10° 206° (SSW) 2,521 9.5 -7.9°
Maximum altitude 08:21:47 21° 157° (SSE) 2,312 9.9 -6.8°
Drops below altitude 10° 08:28:20 10° 111° (ESE) 3,795 12.2 -5.2°
Sets 08:33:36 0° 97° (E) 5,369 14.7 -4.0°
